Theta_e
292 288 286 289 290 292 290 287 287 291 294 291 292 292 295 297 296 295 296 296 296 296 300 300 302 303 329 334 336 338 342 346 344 338 336 334 333 335 335 337 339 337 338 343
289 286 292 293 292 290 289 287 286 291 293 291 290 290 295 297 296 297 298 297 298 296 298 301 301 305 332 332 336 337 341 341 340 339 338 337 336 336 336 337 339 338 338 342
285 289 295 293 291 289 289 287 287 287 291 292 290 289 293 296 297 298 298 299 299 298 298 299 301 304 331 332 333 337 339 336 338 338 336 334 335 335 334 337 337 338 341 344
289 292 293 291 289 290 285 292 292 291 288 283 291 282 290 292 294 295 297 296 299 300 299 299 300 307 327 333 335 336 337 336 337 336 335 333 331 330 333 335 338 340 344 343
289 290 290 289 290 293 289 296 294 290 286 283 285 282 287 290 289 291 294 297 298 300 299 298 299 303 322 330 335 335 336 337 336 337 336 333 331 332 335 337 339 341 341 339
292 296 293 291 297 297 295 289 288 285 283 278 283 283 283 286 290 292 295 297 299 299 299 298 299 300 314 324 332 335 334 337 336 335 338 336 332 335 337 339 339 338 337 334
289 290 293 298 290 291 289 284 279 270 277 275 285 281 286 291 294 295 294 296 297 298 298 299 298 298 302 320 328 334 335 334 337 333 336 339 336 339 339 339 337 334 333 331
281 281 289 295 291 288 286 287 280 268 269 274 283 277 283 293 297 297 297 297 298 298 296 298 299 299 299 313 324 330 333 333 336 333 334 337 339 340 340 339 337 335 334 332
283 284 293 294 295 293 287 283 289 283 279 278 280 283 289 292 293 294 295 297 297 297 298 297 299 300 299 305 318 326 331 333 336 333 333 337 338 340 340 339 338 335 333 329
288 283 290 293 294 295 290 292 281 285 274 273 278 279 282 287 289 292 294 293 295 297 297 299 299 300 300 303 315 323 327 331 333 334 334 337 339 340 338 337 334 331 329 328
288 285 286 290 288 285 287 285 287 286 282 277 276 278 287 288 290 290 293 294 295 297 298 299 300 303 301 301 310 319 324 328 332 334 335 338 338 338 336 334 330 329 327 325
289 286 284 286 293 294 290 288 287 282 280 283 282 281 293 294 291 293 295 297 298 298 297 299 302 305 310 301 302 318 322 327 332 334 337 339 336 334 333 330 329 328 325 324
288 286 281 281 284 290 289 290 289 288 287 281 278 280 292 294 294 295 295 296 295 295 296 298 299 302 306 312 304 315 323 327 331 334 337 335 333 332 329 328 327 325 323 321
297 289 285 280 283 288 285 287 289 288 282 281 282 283 288 291 292 291 292 295 296 293 295 296 298 300 305 312 312 312 324 329 331 332 334 333 332 329 327 326 324 322 322 318
291 286 288 286 288 287 286 287 287 285 285 282 284 285 288 291 290 291 293 294 294 293 294 295 296 298 300 305 317 315 327 330 331 331 332 331 328 327 324 322 321 320 319 317
292 286 287 283 288 287 285 287 287 287 288 287 287 286 290 292 291 291 292 293 291 291 293 294 296 297 299 303 318 319 329 330 333 330 330 328 325 323 321 319 318 316 316 315
290 287 285 281 285 284 279 284 286 285 287 284 280 285 289 288 289 289 291 291 290 291 292 293 295 296 298 301 317 323 328 332 332 330 327 325 324 320 318 317 316 313 313 314
285 288 287 281 282 274 285 288 287 284 285 287 286 287 288 288 289 290 291 290 290 291 292 293 295 296 299 310 319 323 328 329 329 327 324 323 319 315 314 314 312 312 313 311
288 287 284 281 279 283 285 285 283 282 281 287 285 286 286 288 288 286 290 290 290 291 293 294 295 296 300 314 319 324 325 324 325 323 321 319 316 314 313 310 310 311 309 307
290 288 286 283 278 275 281 287 290 286 276 286 285 285 284 285 279 283 290 294 293 294 293 293 295 298 302 314 317 322 321 322 319 319 317 315 314 312 309 308 307 308 308 305
282 281 281 281 279 282 287 291 289 277 279 286 286 285 284 282 285 288 291 292 294 294 295 296 296 301 313 314 319 318 319 316 316 315 313 311 310 308 308 306 306 306 305 302
283 282 279 282 279 277 292 290 282 285 286 286 285 285 286 287 291 295 293 292 292 293 295 297 298 313 314 313 313 311 309 310 311 309 308 307 308 307 307 303 302 302 301 298
283 286 284 285 285 293 295 289 290 288 284 285 284 286 288 291 295 296 296 294 294 295 296 300 313 313 312 311 309 305 306 307 306 304 303 303 303 303 302 300 300 300 300 297
286 288 288 287 289 291 290 291 290 289 285 286 286 289 294 295 301 295 295 295 296 300 308 313 312 311 308 309 307 305 305 304 302 299 298 299 299 298 299 300 301 300 299 297
289 288 288 287 290 289 290 290 289 287 287 288 292 294 300 306 308 308 307 308 308 309 310 310 309 308 306 307 306 306 303 302 299 298 298 297 297 296 295 295 296 297 298 298
284 285 285 286 287 285 286 290 290 287 288 291 293 295 304 305 307 307 306 306 307 307 307 307 307 306 306 306 305 303 302 301 299 297 297 296 295 294 292 290 288 290 290 290
Wind_Speed
2 2 7 13 14 16 10 9 15 14 13 6 16 17 25 9 9 12 10 10 8 9 9 7 8 9 7 5 6 14 13 17 12 10 11 8 9 6 6 7 10 10 8 7
4 6 13 7 8 10 12 13 17 16 13 7 12 18 26 15 12 13 15 12 10 7 6 7 8 6 7 8 10 7 16 15 14 12 11 8 9 7 7 7 8 11 10 9
5 8 5 10 13 14 14 10 15 14 4 6 7 23 23 16 16 14 13 13 9 10 10 9 9 10 9 10 12 13 13 16 16 15 8 4 5 3 3 4 4 6 11 11
6 5 8 12 11 9 10 4 6 6 4 7 4 18 20 9 17 14 11 10 13 12 7 9 10 10 10 14 12 13 11 12 13 13 12 12 9 8 6 9 7 8 11 11
9 6 16 16 6 3 7 4 6 7 11 6 7 8 10 3 8 10 10 14 12 10 8 10 11 12 13 13 12 14 13 12 12 13 12 10 10 6 3 6 9 8 11 13
10 5 5 7 4 3 2 4 13 5 2 7 12 13 8 5 7 6 7 9 9 8 8 9 11 10 9 7 11 11 13 13 12 10 11 13 11 8 8 8 7 8 7 10
9 5 6 4 3 3 6 6 4 6 3 7 2 5 13 10 12 9 10 8 6 7 7 8 9 9 9 9 8 11 14 16 14 14 12 12 13 11 13 14 11 12 9 10
4 16 2 1 5 8 7 6 3 6 4 5 6 8 8 10 13 9 7 6 3 7 6 9 11 11 12 13 11 10 14 13 15 13 16 10 11 9 9 12 11 9 9 10
6 11 11 15 20 4 1 4 1 5 7 8 6 6 10 14 13 10 9 5 6 7 7 5 7 7 10 11 13 13 14 14 17 19 15 11 11 12 12 12 10 9 10 9
6 21 3 1 3 7 8 4 1 3 4 7 5 5 11 7 9 6 5 7 7 5 6 6 4 7 7 10 13 12 12 17 17 18 16 13 13 13 13 13 13 13 13 13
4 6 10 8 4 4 1 3 5 3 4 4 5 6 8 8 8 5 6 6 6 7 7 7 6 5 7 8 11 12 13 13 15 15 16 16 13 14 14 13 14 15 16 15
5 5 9 16 20 10 6 6 5 4 3 5 5 10 8 18 3 3 4 7 6 4 6 8 6 9 5 7 9 14 12 14 16 17 16 16 15 16 15 14 16 17 17 14
3 3 9 6 1 2 2 5 8 10 6 17 16 8 2 1 6 7 12 6 5 8 8 9 11 11 9 5 8 14 11 13 15 18 16 16 18 17 16 15 15 16 14 16
8 4 8 12 14 14 20 19 15 15 10 15 19 31 17 19 19 13 16 17 12 8 8 8 10 11 10 11 9 12 11 14 16 18 18 18 19 19 16 16 15 16 17 14
3 8 10 13 19 21 25 25 24 23 24 21 25 26 20 15 13 16 15 14 13 11 13 10 11 12 12 14 13 12 12 16 18 18 18 17 19 19 19 18 17 16 16 14
3 6 6 13 21 18 24 21 18 22 25 26 28 24 12 15 10 15 16 11 10 12 14 15 14 14 13 14 16 12 15 18 20 18 17 18 22 22 21 21 20 20 17 18
4 4 5 18 10 18 10 4 1 4 5 7 14 20 20 24 24 18 17 14 15 18 17 17 16 13 13 14 16 12 15 20 20 19 18 20 23 22 21 20 20 20 21 19
4 4 4 8 10 4 3 3 3 8 16 17 24 26 19 13 15 17 20 21 22 21 20 20 14 14 14 16 10 6 13 21 21 19 20 19 21 23 22 20 18 17 17 24
6 3 6 5 5 19 5 3 4 12 37 16 16 8 17 24 26 31 25 23 25 23 21 17 12 14 14 13 9 11 16 18 19 20 21 20 21 22 21 21 20 18 19 18
1 5 5 7 6 6 2 4 9 12 16 3 13 26 28 22 18 22 10 7 9 12 13 12 13 12 15 6 4 10 16 17 21 19 19 19 21 22 21 21 22 15 16 18
9 6 7 9 9 9 3 9 7 4 11 26 27 28 25 20 19 29 25 16 13 10 8 9 10 11 6 1 5 12 16 20 20 17 19 20 21 23 23 22 19 19 17 17
4 5 3 5 5 7 4 14 12 11 20 24 30 30 28 28 25 21 22 17 13 10 9 11 10 9 9 9 14 15 16 18 22 21 19 19 21 17 18 24 18 19 19 19
4 7 6 4 9 21 16 13 16 17 20 24 26 30 29 30 21 5 6 10 9 9 9 11 10 15 14 12 14 21 16 20 22 23 21 19 19 19 19 23 20 15 17 15
6 4 5 6 9 12 14 11 14 20 20 26 22 26 25 20 3 7 10 9 9 11 11 15 16 19 18 16 17 18 21 22 24 25 23 20 16 18 20 14 12 13 13 13
7 3 4 10 12 12 4 16 19 23 25 24 25 22 13 5 6 10 13 13 14 14 16 17 17 18 19 18 18 18 20 23 23 22 21 20 20 16 18 13 11 11 9 10
4 6 3 10 4 5 14 17 22 22 24 26 23 23 12 11 10 14 15 14 14 14 15 16 18 20 18 19 19 20 20 22 23 22 17 17 17 14 14 13 14 20 21 21
Wind_Direction
6 79 241 237 216 248 264 255 261 271 271 270 273 280 279 276 245 265 262 257 248 221 269 261 255 256 258 177 204 154 186 190 176 173 176 195 193 195 187 184 175 174 173 156
342 242 255 311 288 265 263 261 264 270 269 219 271 274 278 281 253 241 257 245 242 192 220 245 255 223 233 215 204 212 175 180 183 188 188 204 180 192 193 187 184 170 166 142
233 260 318 318 306 287 276 257 270 263 285 249 279 276 285 283 259 257 239 238 239 214 198 228 222 219 202 214 200 215 193 180 181 184 177 188 106 95 133 170 171 167 147 145
258 261 311 314 298 272 286 298 308 290 330 277 130 287 286 264 261 244 246 232 235 234 195 214 214 212 205 213 200 201 197 197 184 174 181 172 183 182 182 188 174 159 152 139
258 286 312 310 246 302 258 307 275 269 270 286 220 261 273 163 272 256 233 240 241 239 204 205 221 216 209 210 187 196 182 188 188 187 173 176 187 181 152 164 146 162 149 139
252 270 233 225 276 265 358 336 316 313 208 249 211 203 271 224 227 252 238 235 247 238 220 207 220 225 223 224 191 185 181 186 180 188 185 178 175 159 140 136 152 155 161 137
299 251 268 207 258 320 57 0 299 335 212 237 293 280 257 281 270 250 258 260 252 253 229 215 199 226 230 215 231 179 190 181 178 181 197 185 174 165 152 153 158 162 162 122
310 313 225 111 202 289 283 181 218 250 243 267 324 253 260 251 269 290 275 261 294 321 264 211 207 202 213 217 207 200 186 212 178 179 188 194 167 164 155 157 158 160 145 136
326 281 297 274 279 208 183 200 208 264 233 266 228 298 290 260 273 278 270 282 318 324 324 274 252 222 217 222 209 203 187 195 191 183 184 177 174 160 161 148 144 144 137 138
242 293 268 330 272 220 161 166 256 206 269 261 261 242 238 279 284 299 337 344 314 316 357 18 329 284 261 239 225 198 202 183 195 183 178 179 173 160 151 145 144 141 130 130
255 217 277 321 251 204 127 248 225 251 225 269 288 241 222 239 257 285 299 314 320 342 336 332 313 282 259 241 240 216 194 184 175 185 179 169 163 148 146 144 138 138 135 140
227 251 278 284 283 303 229 240 204 231 242 240 257 247 264 270 257 174 262 287 315 326 315 316 316 312 321 263 241 228 204 176 176 183 173 165 152 144 144 143 144 145 141 139
191 249 297 296 79 200 253 218 212 234 250 246 262 259 73 227 304 326 322 314 315 320 326 331 326 313 318 298 251 233 194 183 174 170 165 162 149 140 147 138 140 134 126 138
215 227 238 280 276 295 284 266 254 256 253 276 250 273 277 279 299 330 315 304 312 316 319 311 310 304 312 310 267 239 205 171 168 170 173 164 146 144 140 134 134 128 130 127
203 259 255 249 271 282 273 275 272 261 263 259 277 271 272 287 296 297 290 280 286 298 304 296 294 298 303 303 283 239 190 172 166 168 164 164 138 137 131 128 126 122 123 111
231 274 267 274 283 275 281 275 264 265 264 265 265 273 272 267 266 282 271 257 266 276 278 281 278 283 289 293 285 228 180 170 166 162 160 154 140 133 133 128 130 125 125 106
231 266 275 292 302 304 290 300 264 300 289 278 285 289 295 289 284 275 269 260 265 270 271 270 271 274 276 275 273 222 181 162 161 157 147 151 141 131 132 132 136 132 136 119
244 246 276 293 323 289 216 102 280 259 265 266 266 281 293 287 285 275 260 262 264 260 258 259 260 264 265 270 230 221 161 148 148 146 148 151 137 130 130 132 128 131 125 116
210 306 289 286 277 278 322 32 311 310 298 284 268 291 295 297 292 273 263 255 246 242 245 249 245 250 267 260 206 212 169 145 135 142 148 146 138 132 132 129 128 123 114 109
185 234 251 295 282 292 235 250 289 287 278 84 323 299 290 297 287 280 288 246 222 223 242 236 231 245 264 277 255 190 131 136 127 155 142 139 133 127 128 125 118 112 111 114
311 291 247 265 264 264 215 313 308 283 303 320 307 298 296 281 257 271 275 263 267 278 263 214 213 232 182 159 141 117 130 137 130 134 126 130 126 131 124 117 113 115 116 112
283 297 280 267 273 284 287 326 323 290 296 298 299 300 300 295 289 268 244 237 236 240 202 198 210 159 124 110 110 114 116 115 120 115 115 121 125 123 125 115 112 117 120 116
273 216 285 260 265 291 320 303 298 295 287 297 300 300 299 301 310 17 164 187 200 188 182 191 172 113 104 111 123 117 118 117 114 110 111 112 116 116 115 108 116 118 119 120
275 192 239 297 270 298 307 314 300 307 300 299 295 294 299 287 30 76 105 128 166 186 170 124 120 115 113 116 118 113 119 116 113 109 108 107 105 109 104 104 113 117 118 124
263 332 255 258 284 314 264 321 314 314 309 310 314 321 319 33 99 96 95 96 97 100 105 110 113 111 115 119 116 118 119 115 110 109 110 109 102 93 97 84 96 110 116 135
192 229 262 296 346 280 306 316 321 319 323 325 332 338 14 36 72 84 85 79 83 88 100 103 107 109 111 112 110 114 114 115 115 109 107 104 101 101 96 97 88 66 94 95